Tracking 27188 objects as of 1-Apr-2023
HD Live streaming from Space Station
objects crossing your sky now

STARLINK-5720

Track STARLINK-5720 now!
10-day predictions
STARLINK-5720 is classified as:


NORAD ID: 55619
Int'l Code: 2023-020BC
Perigee: 425.3 km
Apogee: 429.4 km
Inclination: 43.0 °
Period: 93.0 minutes
Semi major axis: 6798 km
RCS: Unknown
Launch date: February 12, 2023
Source: United States (US)
Launch site: AIR FORCE EASTERN TEST RANGE (AFETR)
Your satellite tracking list
Your tracking list is empty




NASA's NSSDC Master Catalog

Two Line Element Set (TLE):
1 55619U 23020BC  23091.24414402 -.00010667  00000-0 -18774-3 0  9991
2 55619  43.0011  68.8690 0003016 219.4814 140.5826 15.48807169  7544
Source of the keplerian elements: AFSPC